This is the latest recevied weather packets stored in our database for station/object KB1JL-13. If no packets are shown the sender has not sent any weather packets the latest 10 day(s).
| Time | Temp. | Humidity | Pressure | Rain* | Wind** | Luminosity | Snow |
|---|---|---|---|---|---|---|---|
| 1778016615 | 20.56° C | 67% | 1019.9 hPa | 0 mm | - | 268 W/m² | - |
| 1778016312 | 20.56° C | 65% | 1020.2 hPa | 0 mm | - | 282 W/m² | - |
| 1778016010 | 20.56° C | 65% | 1019.9 hPa | 0 mm | - | 256 W/m² | - |
| 1778015707 | 20.56° C | 67% | 1019.9 hPa | 0 mm | - | 334 W/m² | - |
| 1778015403 | 20° C | 67% | 1020.2 hPa | 0 mm | - | 243 W/m² | - |
| 1778015100 | 20.56° C | 66% | 1020.2 hPa | 0 mm | - | 203 W/m² | - |
| 1778014796 | 21.11° C | 65% | 1020.2 hPa | 0 mm | - | 296 W/m² | - |
| 1778014495 | 20.56° C | 66% | 1020.5 hPa | 0 mm | - | 330 W/m² | - |
| 1778014191 | 21.11° C | 65% | 1020.2 hPa | 0 mm | - | 317 W/m² | - |
| 1778013890 | 20.56° C | 66% | 1019.9 hPa | 0 mm | - | 320 W/m² | - |
| 1778013586 | 21.11° C | 64% | 1020.2 hPa | 0 mm | - | 328 W/m² | - |
| 1778013283 | 21.11° C | 65% | 1020.2 hPa | 0 mm | - | 375 W/m² | - |
| 1778012979 | 21.11° C | 66% | 1020.2 hPa | 0 mm | - | 422 W/m² | - |
| 1778012676 | 21.11° C | 65% | 1020.5 hPa | 0 mm | - | 427 W/m² | - |
| 1778012372 | 21.11° C | 64% | 1019.9 hPa | 0 mm | - | 436 W/m² | - |
| 1778012069 | 21.67° C | 65% | 1020.5 hPa | 0 mm | - | 433 W/m² | - |
| 1778011767 | 21.67° C | 64% | 1020.2 hPa | 0 mm | - | 458 W/m² | - |
| 1778011464 | 21.67° C | 65% | 1020.5 hPa | 0 mm | - | 468 W/m² | - |
| 1778011160 | 21.67° C | 65% | 1020.5 hPa | 0 mm | - | 476 W/m² | - |
| 1778010858 | 21.67° C | 64% | 1020.5 hPa | 0 mm | - | 486 W/m² | - |
| 1778010554 | 21.67° C | 65% | 1020.5 hPa | 0 mm | - | 482 W/m² | - |
| 1778010252 | 21.11° C | 65% | 1020.2 hPa | 0 mm | - | 498 W/m² | - |
| 1778009946 | 21.67° C | 65% | 1020.5 hPa | 0 mm | - | 508 W/m² | - |
| 1778009644 | 21.67° C | 63% | 1020.5 hPa | 0 mm | - | 507 W/m² | - |
| 1778009342 | 21.67° C | 64% | 1020.5 hPa | 0 mm | - | 481 W/m² | - |
* Rain latest hour (hover to see other rain measurements)
** Current wind speed in m/s (hover to see current wind gust speed)